User: anonymous   Login
Location: Peebles
(55.6412°N, 3.1714°W)
Time: 02:52:57
(UTC+00:00)
Language:

Cosmos 1356 Rocket - Orbit

View from above orbital plane
View from above orbital plane
View from above satellite
View from above satellite

Ground track
Ground track

The orbit data is extracted from the following two-line orbital elements,

1 13154U 82039B   21333.85464377  .00000368  00000-0  28035-4 0  9991
2 13154  81.1834 193.0093 0040613  34.5551 325.8295 14.99035874147100
Epoch (UTC): 29 November 2021 20:30:41
Eccentricity: 0.0040613
inclination: 81.1834°
perigee height: 541 km
apogee height: 598 km
right ascension of ascending node: 193.0093°
argument of perigee: 34.5551°
revolutions per day: 14.99035874
mean anomaly at epoch: 325.8295°
orbit number at epoch: 14710

The dashed part of the orbit path shows where the satellite is in the earth's shadow,  

DLR